{"data":{"norad_id":51852,"intl_designator":"2022-022A","name":"STARLINK-3542","alt_names":[],"object_type":"PAYLOAD","status":"ACTIVE","operator":null,"country":"US","launch_date":"2022-03-03","launch_site_code":"AFETR","launch_vehicle":null,"mission":null,"orbit_class":"UNKNOWN","rcs_meters":null,"size_class":null,"mass_kg":null,"dimensions":null,"purposes":["comms"],"wikipedia_slug":null,"has_3d_model":false,"image_url":null,"decayed_at":null,"tle_current":{"epoch":"2026-09-20T03:47:12.945408Z","epoch_age_seconds":81459,"freshness":"FRESH","line1":"1 51852U 22022A   26263.15778872  .00001149  00000+0  45126-4 0  9999","line2":"2 51852  53.1589 210.9735 0001165  94.3169 265.7967 15.34401222251325","mean_motion":15.34401222,"eccentricity":0.0001165,"inclination_deg":53.1589,"raan_deg":210.9735,"arg_perigee_deg":94.3169,"mean_anomaly_deg":265.7967,"bstar":4.5126e-5,"rev_number":25132,"period_min":93.847683340805,"perigee_km":461.90265070314,"apogee_km":463.49656563284,"semimajor_km":6840.836608168,"source":"CELESTRAK","updated_at":"2026-09-20T09:00:39.944496Z"}}}